Orbital Elements at Epoch 2459200.5 (2020-Dec-17.0) TDB
Reference: JPL 25 (heliocentric ecliptic J2000)
Element | Value | Uncertainty (1-sigma) | Units |
e | .05915710036447798 | 3.6311e-08 | |
a | 5.232660532402538 | 9.4814e-08 | au |
q | 4.923111508113958 | 2.2385e-07 | au |
i | 2.568861029537064 | 4.965e-06 | deg |
node | 202.909030350086 | 0.00010884 | deg |
peri | 251.3119956241809 | 0.00012161 | deg |
M | 249.8052042505091 | 5.7792e-05 | deg |
tp | 2460538.761092155292 (2024-Aug-16.26109216) | 0.00072483 | TDB |
period | 4372.021291015742 11.97 | 0.00011883 3.253e-07 | d yr |
n | .0823417765004438 | 2.238e-09 | deg/d |
Q | 5.542209556691118 | 1.0042e-07 | au |
|
| | Orbit Determination Parameters
Additional Information
|